User: anonymous   Login
Location: Albany
(35.0000°S, 118.0000°E)
Time: 06:27:16
(UTC-04:00)
Language:

Radarsat Rocket - Orbit

View from above orbital plane
View from above orbital plane
View from above satellite
View from above satellite

Ground track
Ground track

The orbit data is extracted from the following two-line orbital elements,

1 23711U 95059B   17080.96893550 +.00000002 +00000-0 +89172-4 0  9996
2 23711 100.5559 071.4026 0368214 155.8325 229.0744 13.12692829024179
Epoch (UTC): 21 March 2017 23:15:16
Eccentricity: 0.0368214
inclination: 100.5559°
perigee height: 933 km
apogee height: 1492 km
right ascension of ascending node: 71.4026°
argument of perigee: 155.8325°
revolutions per day: 13.12692829
mean anomaly at epoch: 229.0744°
orbit number at epoch: 2417

The dashed part of the orbit path shows where the satellite is in the earth's shadow,  

DLR